Location: Newark
(41.1192°N, 81.5292°W)
Time: 04:36:55
(UTC+00:00)

N. Korean satellite - Pass Details

Date: 21 November 2019
Orbit: 456 x 506 km, 97.2° (Epoch: 07 December)

Event Time Altitude Azimuth Distance (km) Brightness Sun altitude
Rises 23:43:54 0° 217° (SW) 2,563 11.0 -18.9°
Reaches altitude 10° 23:47:43 10° 259° (W) 1,702 10.6 -19.6°
Maximum altitude 23:48:26 10° 270° (W) 1,677 10.5 -19.7°
Drops below altitude 10° 23:49:09 10° 281° (WNW) 1,709 10.3 -19.8°
Sets 23:53:03 0° 323° (NW) 2,610 10.6 -20.6°
